Regional Weather Roundup
Issued by NWS Lake Charles, LA

Current Version | Previous Version | Text Only | Print | Product List | Glossary On
Versions: 1 2 3 4 5 6 7 8 9 10 11 12 13 14 15 16 17 18 19 20 21 22 23 24 25 26 27 28 29 30 31 32 33 34 35 36 37 38 39 40 41 42 43 44 45 46 47 48 49 50
000
ASUS44 KLCH 271310
RWRLCH
RWRLCH
REGIONAL WEATHER ROUNDUP
NATIONAL WEATHER SERVICE LAKE CHARLES LA
800 AM CDT MON APR 27 2015

Note: "fair" indicates few or no clouds below 12,000 feet with no
significant weather and/or obstructions to visibility.


ACROSS SOUTHEAST TEXAS

CITY           SKY/WX    TMP DP  RH WIND       PRES   REMARKS
BEAUMONT       TSTM      67  64  90 N12       29.67F
BEAUMONT CITY    N/A     66  63  91 N10G16    29.69F
ORANGE         CLOUDY    66  62  86 N5        29.72S
JASPER         NOT AVBL
$$

ACROSS CENTRAL LOUISIANA

CITY           SKY/WX    TMP DP  RH WIND       PRES   REMARKS
LEESVILLE      HVY RAIN  61  59  94 NW13G21   29.81R VSB 7/8
FULLERTON      TSTM      63  59  87 VRB5      29.75F
ALEXANDRIA INT TSTM      66  60  81 NE13      29.87R VSB 1
ESLER FIELD    TSTM      60  58  92 N12G23    29.82R FOG
DERIDDER       TSTM      64  62  94 N5        29.78R
OAKDALE        TSTM      62  61  95 CALM      29.79R
OPELOUSAS      CLOUDY   N/A N/A N/A NE13      29.67F THUNDER
$$

ACROSS SOUTHWEST AND SOUTH CENTRAL LOUISIANA

CITY           SKY/WX    TMP DP  RH WIND       PRES   REMARKS
SULPHUR        CLOUDY   N/A N/A N/A N8        29.73F
LAKE CHARLES   LGT RAIN  66  63  90 VRB3      29.73F
CHENNAULT INT  TSTM      64  64 100 N12G23    29.74R
CAMERON PHI    CLOUDY    66  66 100 N18G31    29.75R FOG
DEQUINCY         N/A     63  63 100 CALM      29.71F
JENNINGS       TSTM      63  62  99 NW38G49   29.74R VSB 1
LAFAYETTE      CLOUDY    74  70  87 E5        29.67R FOG
NEW IBERIA     CLOUDY    76  69  79 E9        29.68R
ABBEVILLE      PTSUNNY   74  69  85 E7        29.68R FOG
PATTERSON      CLOUDY    75  68  78 E12       29.69R
SALT POINT       N/A     76  73  91 VRB7      29.65R
$$

SELECTED SITES ACROSS THE REGION

CITY           SKY/WX    TMP DP  RH WIND       PRES   REMARKS
HOUSTON BUSH   PTSUNNY   67  63  87 NE9       29.66R
HOUSTON HOBBY  CLOUDY    69  64  84 NE9       29.64S
GALVESTON      CLOUDY    73  69  87 N20G25    29.65R
COLLEGE STAT   SUNNY     65  62  90 NE8       29.67R
CONROE         PTSUNNY   65  61  87 VRB6      29.69R
HUNTSVILLE     CLOUDY    65  63  93 E8        29.69R
LUFKIN         CLOUDY    64  59  83 E21G30    29.70R
SHREVEPORT     TSTM      57  54  89 E17       29.78F
MONROE         LGT RAIN  58  51  78 NE16G24   29.91R
NATCHEZ MS     CLOUDY    63  59  88 NE15      29.80R THUNDER
BATON ROUGE    CLOUDY    68  64  87 NE15G23   29.73R
N.O. INTL ARPT CLOUDY    75  70  84 NE16G22   29.74R
SLIDELL        CLOUDY    68  65  90 NE8       29.77R
$$

MARINE REPORTS

STATION/POSITION TIME  TEMP    WIND        PRES    VSBY  WAVE
                       AIR SEA DIR/SP/G                  HT/PER
                 (UTC) (F)     (DEG/KT/KT) (MB)    (MI)  (FT/S)
BUOY 30 S HIGH I 1250   75 74   90/ 12/ 12 1002.9R         3/ 7
SEA RIM ST PARK  1300   69      10/ 12/ 17 1005.4R
PORT ARTHUR      1200      74  330/  9/ 20 1005.5R
SABINE PASS N    1200   77 76   60/  3/  4 1004.9R
TEXAS POINT      NOT AVBL
CALCASIEU PASS   1200   75 77  110/ 16/ 19   N/A
LK CHARLES BEACH 1200   74 72              1004.2R
MARSH ISLAND     NOT AVBL
FRESH WATER LOCK 1200   75 78  100/ 12/ 17 1003.0R
AMERADA PASS     1200   75 70  100/ 10/ 13 1004.2R
$$



USA.gov is the U.S. government's official web portal to all federal, state and local government web resources and services.